Location: Trois-Rivi�res
(46.3500°N, 72.5500°W)
Time: 08:27:43
(UTC-04:00)

Daily predictions for brighter satellites

Satellite Brightness Start Highest point End
(mag) Time Altitude Azimuth Time Altitude Azimuth Time Altitude Azimuth
CENTAUR R/B 4.2 21:15:47 10° NNW 21:22:36 34° NNE 21:30:04 10° E
Cosmos 2221 4.4 21:24:48 10° NNE 21:27:39 17° ENE 21:30:28 10° ESE
Terra 3.6 21:24:52 10° ESE 21:28:10 19° ENE 21:31:27 10° NNE
Cosmos 1726 3.0 21:25:20 10° N 21:28:51 36° ENE 21:32:20 10° SE
Resurs 01 Rocket 3.3 21:25:46 10° SSW 21:29:44 33° W 21:33:47 10° NNW
Cosmos 1048 Rocket 4.4 21:25:19 10° SSW 21:30:38 74° WNW 21:36:03 10° NNE
Cosmos 921 Rocket 3.1 21:27:07 10° NNW 21:31:37 81° ENE 21:36:09 10° SSE
ERS-2 3.8 21:29:10 10° SSW 21:32:29 32° W 21:35:49 10° NNW
SL-8 R/B 3.8 21:37:17 10° SW 21:42:01 58° SSE 21:46:47 10° ENE
ARGOS 3.4 21:37:52 10° S 21:43:17 75° WSW 21:48:44 10° NNW
Cosmos 2278 Rocket 3.2 21:38:43 10° SSE 21:43:27 28° ESE 21:48:11 10° NE
Cosmos 1315 Rocket 3.9 21:41:32 10° SSW 21:45:29 49° WNW 21:49:31 10° N
Cosmos 1461 4.2 21:41:57 10° SSE 21:45:43 25° ESE 21:49:35 10° ENE
Iridium 81 4.0 21:45:10 10° SSE 21:47:39 55° E 21:50:40 10° N
MetOp-A 4.4 21:44:10 10° S 21:49:30 69° WSW 21:54:52 10° NNW
APEX 3.1 21:49:13 10° NNW 21:52:14 55° ENE 21:55:17 13° SE
Cosmos 1745 Rocket 4.2 21:47:03 10° N 21:53:20 60° ENE 21:59:18 11° SSE
SL-08 R/B 4.5 21:50:30 10° N 21:56:40 78° E 22:02:53 10° SSE
COSMOS 2406 3.4 21:53:10 10° NNW 21:58:57 79° WSW 22:04:22 12° SSE
Cosmos 220 Rocket 4.2 21:55:54 10° S 21:59:57 48° ESE 22:04:02 10° NNE
Cosmos 1844 Rocket 2.9 21:54:20 10° SSW 22:00:00 78° WNW 22:05:41 10° NNE
IGS 5A 4.4 21:56:51 13° SE 22:00:06 35° ENE 22:03:55 10° N
Cosmos 1844 3.8 22:00:36 10° SSW 22:06:19 89° WNW 22:12:08 10° NNE
SL-08 RB Rocket 4.4 22:02:02 10° S 22:06:36 54° W 22:11:12 10° NNW
ATLAS 3B R/B 2.7 22:00:32 10° NW 22:07:12 78° SW 22:12:52 14° SSE
Cosmos 1238 Rocket 4.4 22:07:11 10° SW 22:09:44 26° WNW 22:12:27 10° NNW
CARTOSAT-1 4.1 22:06:45 15° SE 22:10:03 45° ENE 22:14:11 10° N
KORONAS-FOTON 3.9 22:06:25 10° S 22:10:18 82° W 22:14:16 10° N
SPOT 5 3.1 22:06:25 13° SSE 22:11:04 81° ENE 22:16:24 10° NNW
USA 238 DEB 4.2 22:04:17 10° NW 22:11:17 59° WSW 22:17:40 13° SSE
USA 238 4.2 22:04:24 10° NW 22:11:23 60° WSW 22:17:45 13° SSE
SL-14 R/B 3.7 22:09:27 15° SSE 22:12:26 45° E 22:16:13 10° NNE
ATLAS 5 CENTAUR R/B 2.7 22:14:23 15° SSE 22:17:09 26° ESE 22:21:10 10° ENE
Lacrosse 5 2.9 22:12:53 10° WSW 22:17:48 49° NNW 22:22:44 10° NE
Cosmos 1076 Rocket 4.5 22:18:59 18° SE 22:21:18 30° E 22:25:00 10° NNE
NOSS 2-2 (C) 4.4 22:20:40 19° SSE 22:22:12 24° ESE 22:25:39 10° ENE
NOSS 3-2 (A) 4.1 22:15:28 10° NW 22:22:58 76° SW 22:29:42 17° SSE
S3M 4.1 22:17:03 10° S 22:23:25 88° W 22:29:52 10° N
SL-27 R/B 4.2 22:21:30 10° N 22:24:30 23° ENE 22:26:36 15° ESE
SPOT 1/Viking Rocket 3.6 22:20:08 14° SSE 22:24:34 81° WSW 22:29:45 10° NNW
H-2A R/B 3.2 22:19:49 10° SSW 22:24:47 40° W 22:29:54 10° NNW
Cosmos 1709 Rocket 4.3 22:20:28 10° N 22:26:35 54° ENE 22:31:05 18° SSE
Cosmos 2082 Rocket 2.9 22:23:14 10° NNW 22:28:45 46° ENE 22:33:00 16° SE
Cosmos 1833 Rocket 3.2 22:24:03 10° NNW 22:29:32 51° ENE 22:33:38 18° SE
Helios 1B rocket 2.5 22:26:39 10° NNE 22:30:44 59° ESE 22:33:41 18° S
Helios 1A 3.2 22:28:25 16° S 22:31:43 66° WSW 22:35:56 10° NNW
Cosmos 1626 2.7 22:31:41 23° SSE 22:33:28 39° E 22:36:58 10° NNE
Cosmos 1842 Rocket 4.1 22:31:20 10° NNW 22:35:36 55° W 22:39:11 14° S
CZ-2C R/B 3.4 22:31:46 10° NNE 22:36:43 35° E 22:39:34 21° SSE
Cosmos 1340 4.0 22:35:58 10° NNW 22:39:27 35° W 22:42:33 12° SSW
YAOGAN 11 4.5 22:36:52 21° SE 22:39:43 57° ENE 22:44:11 10° N
ATLAS 2AS CENTAUR R/B 3.7 22:33:04 10° WSW 22:40:53 60° NW 22:48:57 10° NE
Aureole 3 Rocket 4.3 22:37:55 17° SSE 22:43:28 52° E 22:48:42 10° NNE
Landsat 7 4.2 22:42:27 17° S 22:46:01 61° WSW 22:50:46 10° NNW
Spot 1 4.2 22:46:00 23° SSE 22:48:47 84° WSW 22:53:28 10° NNW
NOSS 3-2 (C) 4.1 22:41:20 10° NW 22:48:50 72° SW 22:54:47 20° SSE
ERS-1 Rocket 4.5 22:47:14 10° SSW 22:51:37 30° W 22:56:02 10° NW
Cosmos 1455 3.0 22:54:08 10° N 22:57:42 37° ENE 22:59:05 27° ESE
Cosmos 1300 3.7 22:55:28 10° NNW 22:59:06 41° W 23:01:28 19° SSW
Cosmos 2251 Rocket 4.2 22:59:17 10° SW 23:04:30 55° WNW 23:09:45 10° NNE
Terra 2.2 23:02:30 22° S 23:05:28 60° W 23:10:12 10° NNW
Cosmos 2221 3.2 23:01:21 10° NNW 23:05:33 50° W 23:08:10 21° SSW
Cosmos 1992 Rocket 3.9 23:00:34 10° NNW 23:05:49 89° ENE 23:08:42 28° SSE
Cosmos 2315 Rocket 4.0 23:02:11 18° S 23:07:00 86° E 23:13:24 10° N
RESURS DK-1 2.7 23:06:04 32° SSE 23:07:25 44° ESE 23:11:23 10° NE
ADEOS Rocket 4.4 23:04:25 10° NE 23:09:10 23° E 23:11:41 19° SE
Okean 3 Rocket 3.5 23:06:52 26° S 23:09:17 84° E 23:13:42 10° N
COBE Rocket 4.3 23:08:44 10° NNE 23:13:43 51° E 23:16:06 29° SSE
Meteor 1-29 3.6 23:10:26 10° N 23:13:46 51° WNW 23:15:43 21° SW
CENTAUR R/B 3.1 23:06:22 10° NW 23:14:18 90° WSW 23:20:13 23° SE
H-2A R/B 4.5 23:09:34 18° S 23:14:49 28° SE 23:49:00 10° E
NOSS 2-2 (E) 3.3 23:11:47 13° SW 23:15:16 89° SE 23:19:54 10° NE
NOSS 3-4 (A) 3.6 23:11:41 10° SW 23:17:52 80° NW 23:24:24 10° NE
NOSS 3-4 (C) 3.6 23:11:46 10° SW 23:17:56 80° NW 23:24:30 10° NE
Cosmos 1328 Rocket 4.1 23:14:57 10° N 23:19:09 45° ENE 23:20:48 30° SE
Cosmos 2184 Rocket 4.3 23:14:00 10° N 23:20:15 57° ENE 23:23:43 27° SE
Cosmos 2228 Rocket 4.2 23:16:59 10° N 23:21:02 32° ENE 23:22:45 24° ESE
CZ-2C R/B 3.8 23:19:33 22° S 23:23:17 55° W 23:28:55 10° NNW
Cosmos 1328 4.2 23:21:27 24° SSW 23:23:38 58° W 23:27:33 10° N
SAR-Lupe-4 3.7 23:23:20 41° SE 23:24:20 61° ENE 23:27:53 10° N
Meteor 1-11 4.2 23:20:56 25° S 23:24:23 78° E 23:30:12 10° NNE
SL-8 R/B 4.0 23:19:45 10° W 23:24:35 71° N 23:29:26 10° ENE
Cosmos 1461 4.1 23:20:03 10° SW 23:24:36 51° NW 23:29:18 10° NNE
Meteor 2-10 Rocket 4.4 23:21:12 10° N 23:25:59 37° ENE 23:28:32 23° ESE
Cosmos 2278 Rocket 3.0 23:21:43 10° SW 23:27:14 51° WNW 23:32:47 10° NNE
COSMOS 2487 4.4 23:24:55 10° N 23:27:37 20° ENE 23:28:58 17° E
ATLAS 3B CENTAUR R/B 4.4 23:25:45 10° SW 23:34:43 21° S 23:35:03 21° S
Spot 4 3.9 23:33:05 33° S 23:35:18 80° WSW 23:40:11 10° NNW
Cosmos 407 Rocket 3.8 23:35:40 34° SSE 23:37:29 48° ESE 23:42:28 10° NNE
Cosmos 1441 Rocket 3.1 23:34:52 10° N 23:38:40 76° ENE 23:39:35 49° SSE
SAR-Lupe-1 4.0 23:41:45 53° SSE 23:42:31 85° ENE 23:46:08 10° NNW
SL-19 R/B 4.4 23:40:51 10° NNE 23:46:12 52° E 23:48:12 34° SSE
NOSS 2-2 (D) 4.0 23:42:35 11° SW 23:46:13 58° NW 23:50:47 10° NE
Cosmos 405 Rocket 2.5 23:47:17 10° N 23:51:00 80° E 23:51:43 56° SSE
Cosmos 1500 Rocket 4.1 23:50:19 37° SE 23:51:19 44° E 23:55:26 10° NNE
Cosmos 1190 Rocket 4.0 23:49:20 35° S 23:51:27 66° ESE 23:56:37 10° NNE
